Location: Unspecified
(44.8174°N, 0.0000°E)
Time: 15:57:34
(UTC+00:00)

CZ-4 R/B DEB - Visible Passes

Search period start: 04 April 2026 00:00
Search period end: 14 April 2026 00:00
Orbit: 858 x 874 km, 98.9° (Epoch: 18 March)

Date Brightness Start Highest point End Pass type
(mag) Time Alt. Az. Time Alt. Az. Time Alt. Az.
4 Apr ? 04:21:23 10° NNE 04:26:55 60° ESE 04:32:22 10° S visible
5 Apr ? 04:14:01 10° NNE 04:19:28 52° E 04:24:51 10° S visible
6 Apr ? 04:06:39 10° NNE 04:12:00 45° E 04:17:17 10° S visible
7 Apr ? 03:59:19 10° NNE 04:04:32 39° E 04:09:41 10° SSE visible
8 Apr ? 03:52:01 10° NNE 03:57:03 34° E 04:02:02 10° SSE visible
9 Apr ? 03:44:45 10° NE 03:49:34 29° E 03:54:21 10° SSE visible
10 Apr ? 03:37:30 10° NE 03:42:04 26° E 03:46:36 10° SSE visible
11 Apr ? 03:30:18 10° NE 03:34:34 22° E 03:38:48 10° SE visible
12 Apr ? 03:23:09 10° NE 03:27:03 19° E 03:30:56 10° SE visible
13 Apr ? 03:16:05 10° NE 03:19:32 17° E 03:22:57 10° SE visible
